TimePDT,TemperatureF,Dew PointF,Humidity,Sea Level PressureIn,VisibilityMPH,Wind Direction,Wind SpeedMPH,Gust SpeedMPH,PrecipitationIn,Events,Conditions,WindDirDegrees,DateUTC
1:00 AM,51.8,46.4,82,30.04,9.0,ENE,4.6,-,N/A,,Clear,70,2012-10-09 08:00:00
2:00 AM,52,45,70,30.06,,East,8.1,,,,,80,2012-10-09 09:00:00
2:00 AM,51.8,46.4,82,30.06,9.0,East,10.4,-,N/A,,Clear,100,2012-10-09 09:00:00
3:00 AM,50.0,44.6,82,30.07,9.0,East,6.9,-,N/A,,Clear,100,2012-10-09 10:00:00
4:00 AM,51.8,44.6,76,30.07,9.0,East,9.2,-,N/A,,Clear,80,2012-10-09 11:00:00
5:00 AM,48,44,81,30.08,,ENE,6.9,,,,,70,2012-10-09 12:00:00
5:00 AM,48.2,44.6,87,30.09,9.0,East,6.9,-,N/A,,Clear,90,2012-10-09 12:00:00
6:00 AM,48.2,44.6,87,30.09,9.0,East,6.9,-,N/A,,Clear,90,2012-10-09 13:00:00
7:00 AM,48.2,42.8,82,30.10,9.0,ENE,3.5,-,N/A,,Clear,60,2012-10-09 14:00:00
8:00 AM,46,42,82,30.10,,East,9.2,,,,,90,2012-10-09 15:00:00
8:00 AM,46.4,42.8,87,30.10,9.0,ESE,10.4,-,N/A,,Clear,110,2012-10-09 15:00:00
9:00 AM,48.2,42.8,82,30.12,9.0,East,8.1,-,N/A,,Clear,90,2012-10-09 16:00:00
10:00 AM,53.6,44.6,72,30.12,9.0,ESE,5.8,-,N/A,,Clear,120,2012-10-09 17:00:00
11:00 AM,58,44,49,30.11,,SSW,3.5,,,,,210,2012-10-09 18:00:00
11:00 AM,57.2,44.6,63,30.12,9.0,SW,4.6,-,N/A,,Clear,230,2012-10-09 18:00:00
12:00 PM,60.8,44.6,55,30.10,9.0,West,6.9,-,N/A,,Clear,270,2012-10-09 19:00:00
1:00 PM,62.6,44.6,52,30.07,9.0,West,10.4,-,N/A,,Clear,260,2012-10-09 20:00:00
2:00 PM,64,47,44,30.04,,WSW,10.4,,,,,250,2012-10-09 21:00:00
2:00 PM,64.4,48.2,56,30.04,9.0,West,11.5,-,N/A,,Clear,280,2012-10-09 21:00:00
3:00 PM,64.4,48.2,56,30.03,9.0,West,12.7,18.4,N/A,,Clear,280,2012-10-09 22:00:00
4:00 PM,64.4,48.2,56,30.02,9.0,WNW,12.7,19.6,N/A,,Clear,290,2012-10-09 23:00:00
5:00 PM,62,48,50,30.01,,West,8.1,,,,,280,2012-10-10 00:00:00
5:00 PM,62.6,48.2,59,30.01,9.0,West,8.1,18.4,N/A,,Clear,280,2012-10-10 00:00:00
6:00 PM,60.8,50.0,68,30.01,9.0,WNW,9.2,18.4,N/A,,Clear,290,2012-10-10 01:00:00
7:00 PM,59.0,50.0,72,30.01,8.0,West,6.9,-,N/A,,Clear,260,2012-10-10 02:00:00
8:00 PM,56,49,72,30.02,,SSW,6.9,,,,,210,2012-10-10 03:00:00
8:00 PM,55.4,50.0,82,30.02,8.0,SW,9.2,-,N/A,,Clear,220,2012-10-10 03:00:00
9:00 PM,55.4,50.0,82,30.03,7.0,SW,9.2,-,N/A,,Clear,220,2012-10-10 04:00:00
10:00 PM,53.6,48.2,82,30.04,6.0,WSW,8.1,-,N/A,,Haze,240,2012-10-10 05:00:00
10:21 PM,51.8,48.2,88,30.04,5.0,SW,9.2,-,N/A,,Clear,230,2012-10-10 05:21:00
11:00 PM,51,48,86,30.05,,SW,6.9,,,,,230,2012-10-10 06:00:00
11:00 PM,51.8,48.2,88,30.05,4.0,WSW,8.1,-,N/A,,Clear,250,2012-10-10 06:00:00
11:43 PM,48.2,46.4,93,30.05,2.5,WSW,6.9,-,N/A,,Clear,240,2012-10-10 06:43:00